RH
30 29 29 29 28 27 27 24 23 20 16 16 15 15 23 27 25 24 28 29 20 21 45 64 65 55 41 31 29 26 23 22 22 21 22 24 22 26 29 26 27 30 27 28 27 25 31 30 29 33 30 27 31 32 30 30 29 33 38 40 44 53 57 51 56 70 62 43 38 39 38 37 34 38 50 50 45 50 56 65 72 65 62 66 59 61 73
32 32 31 30 30 29 28 26 26 24 21 20 18 20 27 27 22 25 29 26 20 27 45 58 65 63 51 40 35 29 24 22 23 24 23 24 28 31 31 26 23 24 26 28 25 25 31 31 32 37 32 27 31 31 29 36 39 33 36 40 33 41 57 54 52 61 58 51 50 45 46 49 40 36 42 44 41 44 55 65 62 60 66 63 59 65 67
34 34 33 32 31 30 28 27 27 25 25 23 20 22 27 27 25 25 24 19 22 36 44 46 59 65 56 55 54 39 28 24 25 28 24 23 27 29 29 26 24 29 32 31 29 28 30 32 35 40 39 35 34 32 29 38 47 42 41 41 27 34 57 58 53 57 56 57 56 51 55 55 45 41 40 40 37 35 44 51 47 59 74 65 60 68 65
36 35 34 33 32 31 30 29 27 26 26 24 22 23 28 36 39 39 35 25 23 36 42 45 58 62 58 66 64 47 38 34 29 28 27 26 26 29 32 31 31 38 40 39 43 41 37 39 44 50 55 52 44 37 33 37 46 45 36 33 38 49 57 58 64 65 55 46 45 52 58 47 38 42 42 40 44 45 49 49 47 63 74 61 58 61 51
37 37 37 36 34 33 32 30 29 28 26 24 24 24 29 40 51 58 53 42 41 48 48 52 63 59 53 61 59 49 50 47 37 31 28 27 29 35 40 40 40 44 44 44 48 51 53 54 54 57 62 62 53 38 34 38 41 41 31 28 45 57 53 55 60 56 51 46 40 44 49 40 37 44 44 46 52 50 47 48 54 63 59 53 68 71 51
39 38 38 38 37 35 33 32 32 30 27 26 24 26 31 39 52 61 57 53 60 62 55 60 69 59 55 64 61 52 55 57 50 40 31 31 34 39 46 47 46 45 43 44 47 53 61 61 62 62 58 62 62 47 41 41 34 34 35 34 44 50 49 56 56 49 54 53 45 47 50 47 45 46 46 50 53 49 46 52 62 62 51 50 67 71 54
40 39 39 38 37 37 34 33 32 31 30 28 25 30 35 42 54 60 57 56 61 60 55 60 68 63 63 69 64 55 57 59 53 40 36 41 42 44 52 51 46 47 50 54 55 56 56 54 59 61 53 57 63 52 50 49 34 31 40 41 44 49 58 63 54 50 56 53 49 52 50 48 48 45 48 53 56 56 52 56 65 60 51 52 57 60 57
38 38 38 37 37 36 34 34 32 31 31 29 28 34 40 52 66 69 64 64 66 64 60 61 67 68 65 65 61 55 55 55 49 39 35 42 45 48 54 49 43 49 57 60 58 56 55 52 54 55 52 58 63 54 53 52 38 34 42 45 43 45 62 71 56 53 65 61 53 50 47 52 52 47 49 51 55 60 54 53 61 54 51 56 52 53 62
38 37 37 37 37 36 35 35 33 31 32 31 32 38 48 61 71 73 76 81 77 70 62 64 77 78 71 71 67 61 55 49 47 45 36 36 44 49 51 50 47 51 58 57 52 49 51 52 49 45 42 45 47 45 48 45 39 44 48 47 48 49 63 75 63 58 69 63 51 49 51 55 52 50 54 50 51 61 57 53 58 53 49 50 43 48 67
37 37 38 37 36 37 36 36 34 33 32 33 37 42 46 53 57 61 71 77 77 77 73 75 83 76 65 68 68 62 57 48 45 49 41 35 38 42 47 52 53 52 51 50 44 37 35 36 34 32 30 31 30 32 37 34 36 50 51 47 57 56 52 64 66 61 68 66 53 52 55 56 59 65 61 48 47 55 50 47 57 57 49 48 49 57 71
37 36 37 36 34 36 37 35 35 36 35 37 47 49 44 46 53 60 67 70 75 83 80 77 82 74 63 65 66 61 59 54 48 48 46 41 36 37 41 44 54 60 48 37 36 33 30 30 30 28 27 29 29 29 33 33 32 42 45 48 63 62 49 59 64 59 72 75 60 59 66 63 66 74 66 50 50 55 46 44 59 64 59 60 63 65 70
37 36 36 35 33 36 39 36 34 40 48 55 61 56 47 49 60 70 75 79 84 86 80 77 79 74 66 66 65 62 61 59 53 47 47 45 36 35 36 36 49 56 40 29 33 33 30 31 33 35 32 32 35 33 36 43 40 37 38 42 54 56 54 62 61 58 72 71 57 67 76 60 54 65 67 60 58 58 54 56 67 72 70 66 63 65 73
36 37 40 40 37 39 45 42 35 41 58 70 70 61 53 51 57 68 77 85 91 91 88 86 77 67 65 67 66 60 52 48 47 44 45 45 37 34 36 38 42 39 30 30 32 30 39 50 54 55 49 46 51 46 41 46 44 37 37 41 47 53 60 64 64 66 72 68 67 77 71 52 47 53 59 61 57 51 50 55 65 73 74 71 67 70 77
35 34 39 43 42 43 49 47 39 40 56 75 80 73 62 51 48 58 71 85 93 89 85 87 80 69 67 67 63 61 56 50 47 43 41 43 41 39 39 40 39 34 31 33 29 33 54 72 74 71 62 58 63 59 47 42 38 36 38 40 43 54 62 64 65 68 69 72 82 79 62 56 55 49 57 69 67 61 56 53 61 73 77 79 77 77 80
37 36 36 40 43 45 46 48 48 43 47 68 85 81 67 58 56 61 73 87 94 88 81 82 82 77 73 67 62 67 72 68 61 54 48 43 40 42 43 39 35 33 31 30 37 51 62 63 66 72 70 65 63 59 53 46 38 35 37 39 42 51 60 62 66 70 67 69 80 78 70 76 75 64 70 81 78 78 72 58 59 69 71 72 76 78 81
41 41 38 38 40 43 45 53 61 52 41 55 82 85 71 64 63 62 70 84 87 85 82 76 71 71 70 63 60 65 72 73 71 74 73 59 44 41 39 33 34 37 31 31 50 67 66 59 63 73 76 71 63 60 59 54 46 41 39 41 46 56 65 63 62 71 69 65 74 78 71 77 86 83 81 79 73 72 72 68 70 67 57 55 64 68 64
43 44 42 39 38 41 49 61 69 63 48 48 71 89 84 73 64 60 72 86 80 76 82 76 63 65 69 68 68 67 65 65 65 70 75 65 50 44 35 26 31 36 33 44 66 72 66 65 68 74 76 68 59 61 62 59 58 56 53 52 57 70 79 71 64 74 76 70 75 77 68 70 83 85 81 74 61 56 71 87 84 64 45 43 51 53 47
45 43 43 41 38 42 58 74 80 79 70 58 65 87 95 87 76 66 70 85 85 76 75 71 63 66 72 72 72 68 64 63 61 65 72 65 52 46 39 33 39 41 37 52 73 72 65 68 69 72 76 66 53 56 63 64 65 64 59 59 65 72 74 72 73 79 78 75 77 78 75 75 79 81 76 63 50 59 84 92 74 52 44 42 43 45 42
45 43 42 41 37 37 54 81 95 94 87 72 63 74 85 87 87 77 68 83 96 80 59 60 68 69 65 63 64 65 65 63 60 65 74 68 48 40 41 41 45 45 44 59 76 72 67 74 73 71 80 76 59 56 65 67 67 65 60 61 71 72 68 72 78 75 76 83 84 82 82 75 68 71 66 52 55 77 87 70 48 44 48 47 45 46 46
44 43 41 38 37 34 42 69 93 100 97 82 62 59 71 81 91 91 82 90 101 79 53 61 72 61 52 59 67 69 68 64 61 63 67 62 50 51 64 66 56 52 58 72 82 74 72 82 79 71 78 80 64 59 70 74 68 63 57 58 65 63 63 75 81 73 77 85 80 80 84 68 52 57 61 55 60 67 60 48 44 47 51 52 52 51 49
43 43 41 38 38 37 37 51 77 95 102 92 65 49 59 76 89 97 94 94 96 80 60 62 60 47 51 64 65 63 67 68 69 71 70 65 59 62 72 70 58 56 62 71 75 72 75 87 86 75 76 79 69 64 75 85 81 65 51 53 60 58 63 80 83 72 77 86 83 80 74 52 41 54 62 56 48 42 41 49 51 45 43 45 45 43 42
44 42 41 39 40 41 39 48 75 94 93 82 60 38 41 59 74 85 87 82 80 73 60 54 50 49 61 67 57 53 60 63 64 68 71 70 67 62 58 52 47 51 57 61 65 69 76 86 87 82 82 84 83 78 76 84 90 75 55 55 62 58 58 70 75 68 67 75 78 70 55 38 37 47 48 42 39 39 42 47 44 40 39 40 40 41 41
41 40 41 42 44 46 43 47 69 82 73 64 56 39 32 42 50 57 63 61 60 59 51 49 55 58 60 60 54 51 54 55 54 56 60 66 69 65 56 47 45 48 51 52 55 63 77 83 79 82 87 84 84 86 82 82 88 77 62 60 62 53 45 53 68 71 63 59 57 50 40 37 38 39 37 36 39 42 40 38 38 40 40 38 40 42 43
33 36 41 44 45 46 45 43 50 55 54 57 57 46 43 50 49 47 55 62 63 61 54 50 54 54 48 47 48 48 49 50 49 47 50 57 64 63 55 47 45 47 50 51 50 55 70 75 71 81 91 80 73 82 88 86 83 74 67 72 70 56 47 53 65 70 69 69 64 48 40 42 41 38 38 37 37 39 37 36 38 38 37 38 40 41 42
35 33 35 41 43 42 44 44 41 41 44 45 43 43 52 60 57 55 65 75 81 86 85 72 55 43 38 38 40 44 46 46 46 46 46 48 52 54 50 45 45 46 44 47 50 52 63 73 75 84 90 75 65 77 85 81 77 77 80 86 78 61 56 66 71 69 69 73 64 46 41 44 42 38 37 34 35 37 37 37 39 40 41 44 44 43 44
36 32 29 34 40 41 39 34 27 24 28 34 42 51 58 61 62 68 76 82 86 92 98 86 55 35 36 39 40 44 47 45 44 45 44 44 45 46 44 43 47 49 46 48 53 54 62 76 83 89 90 75 65 75 82 74 72 79 82 77 66 60 64 70 72 72 74 70 58 49 51 51 43 38 39 36 36 38 39 41 42 42 44 45 44 44 46
30 27 26 30 35 34 26 20 16 17 28 45 58 64 65 65 70 75 77 79 81 83 91 91 65 38 35 40 42 45 48 47 46 44 42 43 43 42 41 40 42 45 49 54 58 58 66 79 85 86 86 76 67 74 79 71 71 82 83 70 62 67 73 70 72 82 85 72 57 53 60 60 50 43 42 40 38 39 42 43 43 41 42 44 46 49 51
29 21 21 25 28 23 15 17 22 26 41 62 71 72 74 76 79 83 85 86 87 88 94 96 77 49 37 39 41 44 46 44 44 43 42 43 42 41 40 39 38 42 47 54 62 69 77 83 82 80 80 76 72 77 78 76 83 92 87 72 66 70 69 65 70 79 75 59 49 49 56 59 53 45 43 42 40 41 44 45 44 44 44 48 53 57 57
33 21 18 21 24 20 17 26 36 36 45 66 78 79 80 77 78 84 85 82 87 95 98 94 78 56 44 41 41 42 43 42 41 39 38 40 42 41 41 40 40 43 47 53 60 68 74 73 68 69 73 72 74 82 87 91 98 94 76 62 59 60 58 58 62 65 60 52 49 50 52 53 49 45 44 44 43 45 47 47 47 49 51 54 59 60 61
36 24 18 20 25 22 19 33 49 48 48 62 75 81 84 83 78 74 68 65 73 87 97 100 87 62 45 42 43 43 42 42 40 36 34 35 37 39 40 42 42 43 49 55 58 61 66 67 63 64 65 64 72 87 94 96 99 87 64 52 53 53 53 53 54 57 57 52 49 49 51 50 49 48 48 46 46 46 47 49 52 55 59 61 62 63 65
39 27 17 20 27 25 25 41 58 57 52 59 68 76 86 89 79 69 67 69 70 73 85 96 89 67 49 43 43 44 45 44 40 35 32 34 35 35 35 37 42 45 48 53 58 61 66 69 66 65 65 64 72 86 92 96 99 85 58 46 49 51 50 52 53 54 56 54 52 53 55 53 53 53 50 48 49 49 51 55 59 60 63 65 66 68 72
42 29 17 18 25 27 31 45 59 61 60 65 71 77 81 80 73 72 77 77 71 74 86 93 91 86 72 54 45 44 44 42 38 33 30 31 31 30 30 31 37 44 48 54 64 69 67 65 63 62 64 69 79 90 96 99 95 77 55 49 54 56 57 60 63 64 63 63 62 64 63 59 57 58 58 58 58 57 58 63 65 66 69 72 73 76 78
42 29 17 17 24 30 36 47 57 61 61 66 74 79 78 74 74 79 82 76 70 78 90 93 97 100 86 61 49 44 39 39 39 33 31 32 30 28 31 31 34 42 50 59 66 64 60 63 68 68 69 76 86 95 100 95 82 68 62 61 63 65 71 76 78 77 73 71 72 75 75 71 68 68 70 69 67 66 69 72 75 76 77 78 79 79 78
39 29 20 16 23 34 43 49 55 59 61 67 74 73 69 67 67 71 76 73 69 76 87 91 98 101 87 70 62 51 41 42 43 35 32 34 31 30 33 32 31 37 46 53 60 65 68 71 73 73 75 80 86 93 95 88 76 71 73 71 67 74 86 92 91 90 88 87 88 88 85 83 82 81 79 75 74 76 79 81 82 82 81 80 80 80 78
36 30 22 18 25 41 52 55 58 61 65 73 75 69 65 65 63 67 75 74 69 74 85 90 95 98 95 92 83 62 45 44 43 37 34 34 32 32 33 32 34 38 41 45 56 68 73 67 64 69 75 79 89 96 93 85 81 81 83 83 83 88 98 100 96 92 93 97 100 97 92 93 94 89 84 83 83 84 85 86 85 84 81 79 77 77 75
37 31 24 21 31 50 61 65 69 70 72 76 76 71 68 67 65 72 80 77 73 77 83 90 97 98 97 99 88 63 50 49 45 36 33 35 36 35 32 35 41 40 37 45 57 61 59 54 56 66 70 66 74 85 83 79 85 89 90 95 97 97 100 102 97 92 93 98 101 101 99 100 97 91 89 90 90 88 87 84 80 77 76 76 74 73 73
38 33 27 28 45 69 79 78 75 73 72 75 75 72 69 68 72 80 84 84 86 83 79 89 101 94 86 90 82 63 58 59 50 40 36 36 37 35 32 41 49 43 44 61 65 50 42 44 48 57 64 61 62 72 75 77 85 92 96 100 102 99 100 101 98 97 98 100 100 100 100 100 96 92 91 88 84 81 78 74 73 80 87 88 87 87 89
39 34 31 36 53 71 78 74 68 63 62 64 66 66 67 73 83 92 93 94 97 92 86 93 98 87 82 88 78 61 58 57 49 46 45 40 40 40 38 44 49 45 52 68 58 35 41 61 62 60 67 65 58 62 71 78 86 95 100 101 100 100 101 99 98 100 100 99 100 101 100 100 98 95 91 85 79 79 81 80 83 92 97 96 96 99 100
41 37 37 42 51 60 65 65 61 55 54 58 61 63 70 81 91 98 99 98 99 98 98 100 92 82 86 91 76 55 50 51 53 57 54 45 46 50 48 47 46 45 55 66 50 32 51 79 79 69 75 77 67 64 73 85 92 97 100 100 100 101 99 96 98 101 101 99 101 101 100 100 100 98 96 90 86 90 96 97 97 98 99 98 99 101 101
43 42 46 50 53 55 57 56 52 50 54 63 68 68 72 81 86 89 92 97 99 98 97 94 83 71 73 83 78 59 45 44 51 56 52 46 45 47 48 47 44 48 64 71 53 36 48 70 76 78 85 85 75 71 79 90 95 97 99 101 101 97 93 94 98 101 100 100 101 101 100 101 100 100 100 98 96 98 101 100 99 100 100 100 100 100 100
48 54 60 61 56 52 51 52 54 54 57 63 70 73 75 76 72 69 74 81 84 79 76 76 73 60 53 64 73 62 44 39 41 42 45 48 42 39 47 51 45 52 72 74 55 47 59 73 82 90 89 76 69 76 87 95 97 98 100 102 98 93 93 98 101 101 100 100 101 100 100 100 99 99 101 101 100 100 101 100 100 101 100 100 101 101 100
57 64 69 66 59 55 55 58 60 61 62 65 69 71 71 66 58 55 58 59 57 54 53 56 56 47 38 44 51 46 39 40 39 37 45 51 42 40 55 62 56 61 73 67 54 61 78 86 91 92 80 67 70 84 94 97 99 100 101 100 98 96 97 100 101 100 100 101 100 99 100 101 100 100 101 100 100 101 101 100 100 100 99 99 99 98 98
61 65 69 68 63 60 60 60 58 62 70 73 68 64 66 63 56 53 54 50 46 46 46 43 41 40 39 40 41 39 40 41 37 36 43 48 45 48 61 68 66 65 65 64 67 76 85 94 98 89 72 68 79 92 97 99 101 101 101 99 98 99 100 100 101 100 100 100 100 100 100 101 100 100 100 100 101 101 100 99 98 97 96 95 94 94 94
61 63 67 69 65 61 61 61 57 58 67 72 66 64 70 71 66 64 63 57 50 47 43 38 37 41 42 41 41 41 41 40 38 39 41 44 50 58 66 73 73 59 48 63 87 90 85 91 92 75 66 77 89 93 97 101 101 99 100 100 99 100 101 100 100 101 100 100 101 100 100 101 101 100 100 101 100 100 100 100 98 95 92 90 89 89 88
68 72 75 74 69 59 55 57 56 56 63 72 73 70 70 69 68 69 65 56 47 44 41 38 39 42 43 43 44 43 40 38 42 46 45 47 58 66 67 73 79 70 63 80 99 92 82 87 83 68 70 87 94 93 98 102 100 99 101 99 97 100 102 100 100 101 101 100 100 100 100 100 100 100 101 100 99 97 96 95 92 89 86 85 86 87 85
80 86 85 83 78 65 56 61 66 63 62 65 65 62 63 65 65 62 56 48 43 41 39 39 41 44 44 44 44 43 40 39 44 49 47 51 65 68 55 49 63 80 91 101 103 93 86 86 79 71 78 89 92 94 99 100 99 100 100 94 93 97 100 100 101 101 100 100 101 100 100 101 100 99 99 98 96 93 90 88 86 85 85 87 89 89 88
88 91 87 88 90 80 66 66 71 67 59 57 58 57 60 62 59 52 49 49 45 41 39 40 42 45 45 43 45 49 48 46 48 50 48 51 64 68 56 49 65 89 100 100 99 100 96 82 69 72 84 91 91 96 100 98 98 102 101 96 95 97 99 100 101 100 99 100 101 100 100 101 100 99 98 98 96 93 90 88 88 88 89 91 91 89 86
92 94 92 94 97 88 73 68 70 66 58 58 61 58 58 59 57 51 49 48 44 40 39 39 40 45 49 49 52 57 55 48 49 53 52 49 55 60 61 67 81 93 95 96 99 99 88 72 66 75 87 91 92 96 97 94 93 96 98 98 98 98 99 100 100 100 100 101 100 100 101 100 99 98 97 96 96 95 93 91 89 88 88 87 85 83 82
93 98 97 94 90 81 68 67 73 71 61 58 59 57 57 60 59 53 49 49 47 44 42 39 39 47 54 55 58 64 62 53 52 56 54 51 55 63 71 80 85 85 87 96 98 85 69 66 72 81 86 90 95 98 95 88 83 83 87 91 93 94 97 98 98 98 100 99 99 100 101 100 100 100 98 96 97 99 97 94 91 88 86 83 81 82 83
93 98 98 95 92 83 71 70 79 80 71 66 65 63 63 66 61 53 51 54 52 47 43 40 43 50 56 60 67 73 66 56 55 59 57 59 66 70 72 78 85 87 86 84 77 64 59 66 76 81 83 89 95 99 96 88 81 76 76 78 81 86 93 98 98 98 98 98 98 99 98 97 97 98 97 98 100 100 99 97 95 92 89 87 84 83 82
94 97 93 88 86 81 74 74 82 85 82 78 74 69 69 70 64 56 54 58 58 52 46 45 51 62 69 72 75 70 57 50 56 63 62 64 72 76 76 80 87 86 75 61 52 53 62 70 76 81 84 88 94 99 99 93 86 81 78 74 71 70 76 85 90 91 90 90 91 91 90 91 93 93 93 94 94 92 90 88 85 81 79 77 75 74 73
91 90 85 78 75 74 76 79 82 82 80 77 72 70 70 70 64 57 57 61 62 55 45 45 58 74 78 74 69 62 57 61 70 71 66 64 66 70 74 75 70 60 52 49 50 56 64 69 75 82 87 89 93 99 99 93 87 84 83 78 71 64 62 65 70 71 72 73 73 73 74 77 80 80 80 79 77 74 72 70 66 62 61 60 58 56 55
Wind_Speed
21 21 22 22 22 22 21 21 22 22 21 17 16 14 11 9 7 5 4 5 6 6 2 3 4 0 2 4 4 5 4 2 4 5 6 5 3 2 1 1 1 1 1 1 2 2 1 3 2 2 2 1 1 9 19 16 7 3 2 3 1 2 2 2 2 4 4 7 5 2 1 3 6 1 1 4 4 4 4 4 2 2 2 1 2 2 5
22 22 22 22 22 22 21 21 20 21 21 19 18 15 11 12 11 7 4 6 6 2 1 1 2 3 5 4 3 4 3 2 4 3 3 3 1 1 1 1 1 0 1 2 2 2 1 2 3 1 2 1 6 15 20 15 7 4 2 2 1 2 0 2 2 4 5 7 6 4 4 2 3 0 2 3 3 4 2 1 3 1 3 3 4 4 5
23 23 23 22 22 22 22 21 20 18 18 17 16 14 12 10 8 6 5 7 3 4 5 2 2 2 4 4 4 4 2 2 5 5 4 3 1 0 2 2 1 2 2 2 1 1 2 1 3 1 2 2 5 15 17 13 9 6 6 6 3 1 1 2 2 2 3 2 3 3 3 1 0 1 2 2 2 3 1 1 3 1 3 2 4 3 4
23 23 23 23 23 23 22 21 20 18 17 16 14 12 9 5 3 4 7 8 8 10 10 7 2 0 3 3 3 2 1 3 7 6 3 5 3 3 4 4 3 4 4 3 4 3 2 2 1 2 4 3 3 11 12 12 13 10 14 16 6 2 1 1 5 5 5 5 6 5 2 1 3 2 3 2 1 1 3 2 2 3 2 2 4 5 4
23 23 24 24 23 23 22 21 20 19 17 14 12 10 7 2 1 2 4 6 6 7 10 11 5 1 1 1 2 2 2 3 5 4 2 7 7 5 5 6 4 2 4 2 1 3 3 3 3 1 3 3 4 10 7 8 14 13 14 16 7 4 3 2 5 5 6 7 7 5 1 3 5 3 3 5 4 3 5 3 4 4 2 5 6 5 4
24 24 24 24 24 23 22 20 20 20 18 15 12 9 6 3 1 2 3 2 0 2 7 9 6 3 1 1 1 4 5 4 3 2 1 6 8 4 3 6 4 1 2 2 1 2 3 4 2 1 2 2 4 8 4 5 13 14 11 11 6 4 2 3 2 4 6 5 6 5 3 3 5 4 5 6 6 5 6 7 7 6 5 8 7 6 6
25 25 24 24 24 23 22 21 20 20 18 17 13 7 5 4 1 2 4 2 2 2 6 7 4 4 3 2 3 4 5 5 4 3 2 3 5 4 1 2 2 1 2 4 2 0 0 1 2 1 1 3 2 4 3 3 10 12 7 6 4 3 2 3 1 3 6 5 5 4 3 4 3 4 5 5 6 8 8 7 6 8 8 9 6 6 8
25 25 24 24 23 22 22 21 20 19 18 16 13 10 7 6 3 4 6 4 3 5 5 3 2 3 4 3 3 3 4 5 5 5 3 1 3 3 2 3 3 1 3 5 3 3 5 4 2 2 1 2 1 1 2 2 5 8 3 3 4 2 2 2 2 3 6 6 5 4 2 3 4 5 4 5 6 7 6 5 4 5 7 8 5 6 8
24 24 24 23 23 21 21 21 20 19 18 16 14 14 9 5 4 6 5 3 4 5 5 3 3 3 4 2 2 3 3 5 6 4 4 4 1 0 2 4 2 2 4 4 3 7 7 6 6 6 4 2 3 3 2 1 3 4 1 1 2 2 1 2 4 3 6 4 5 7 5 3 5 6 5 6 7 6 5 4 5 6 6 5 3 4 6
23 24 23 23 23 21 20 19 19 18 18 15 14 14 9 4 2 4 3 1 3 4 3 3 3 1 3 4 4 3 4 8 6 2 3 5 4 2 4 4 1 2 3 3 3 7 6 5 7 6 7 8 8 8 7 5 2 1 1 1 1 2 1 1 1 2 6 4 5 5 4 5 8 7 7 10 9 7 5 3 5 7 6 5 4 6 6
23 24 23 22 22 21 19 17 17 17 16 16 15 13 12 8 3 4 3 1 3 5 4 3 3 1 4 7 6 3 5 8 6 2 1 2 5 6 2 2 3 1 2 8 10 9 8 8 8 8 9 9 8 9 10 8 8 7 4 1 2 4 4 3 3 3 6 4 2 3 3 6 8 5 7 10 9 8 7 5 6 7 4 3 4 4 4
24 24 23 22 21 21 19 16 14 13 13 13 12 10 11 10 6 5 3 1 2 5 4 1 2 2 6 9 7 4 3 6 6 3 3 3 7 11 9 7 4 2 8 15 11 7 7 7 6 6 6 6 8 10 8 6 9 12 9 5 3 3 4 3 2 3 4 1 3 1 7 7 4 3 3 6 6 7 7 5 6 5 4 4 4 4 4
24 23 23 22 21 20 20 17 13 11 9 9 9 9 9 9 6 4 3 1 1 2 2 2 5 6 8 8 7 5 5 7 7 4 2 3 6 10 11 9 6 7 13 15 7 3 2 2 2 2 3 4 5 6 4 3 6 9 8 8 6 4 3 2 1 2 2 1 3 5 5 4 5 6 4 2 1 2 1 5 6 3 4 4 4 4 4
23 23 22 22 21 20 19 17 13 10 8 7 8 8 8 8 7 5 4 2 1 3 2 2 5 8 9 8 7 5 6 9 9 6 4 4 5 7 10 12 12 11 11 10 5 1 1 1 3 3 4 4 5 3 3 3 3 5 5 6 7 5 3 2 2 3 2 2 3 3 4 7 6 4 3 1 1 2 2 3 5 5 3 3 4 3 4
22 22 22 21 21 19 18 18 15 11 9 6 6 6 7 8 8 6 4 1 1 3 3 2 3 6 8 8 6 5 4 6 6 5 5 6 6 8 12 14 14 11 7 4 2 2 2 1 1 2 2 2 2 3 3 3 3 4 5 5 3 4 5 4 3 2 2 2 3 3 4 5 5 3 4 2 3 6 6 4 2 5 3 1 4 4 5
22 22 21 21 20 19 17 17 16 14 10 6 4 5 6 7 5 4 3 2 1 0 1 3 5 5 6 5 5 4 3 2 3 3 4 6 8 12 16 15 13 12 8 4 1 4 2 0 2 1 2 2 1 2 2 2 3 4 3 6 6 2 1 4 4 1 1 3 4 3 3 5 5 5 6 7 8 7 3 3 1 4 5 4 4 6 6
22 22 21 20 20 18 17 16 16 16 13 8 4 4 7 7 5 5 4 3 2 3 5 3 7 5 2 2 4 4 4 3 2 1 2 4 6 11 17 17 13 12 12 5 1 3 2 1 2 1 2 2 2 2 2 1 2 4 5 6 6 5 4 3 3 3 2 3 3 3 3 3 4 5 6 10 11 6 3 2 3 6 9 11 9 9 8
22 21 21 20 20 18 17 16 16 16 14 10 4 3 6 7 6 6 5 4 5 3 7 5 7 5 4 4 4 4 6 6 4 2 3 3 3 9 16 15 9 10 11 5 1 2 2 1 1 2 2 3 1 2 2 1 1 3 4 3 3 3 3 1 2 3 3 3 3 3 2 3 4 5 7 11 9 5 4 3 5 8 13 15 11 11 11
21 21 20 20 19 18 16 16 15 16 16 12 5 2 4 7 7 8 8 6 4 4 5 5 3 1 5 8 6 4 5 4 3 3 2 1 6 14 13 6 6 8 8 5 2 2 2 1 1 2 1 3 1 0 2 1 1 2 2 2 2 2 2 2 0 0 1 2 2 2 3 2 3 5 7 8 4 1 2 5 9 11 13 13 11 12 13
21 20 19 20 19 17 16 15 14 15 16 14 8 4 3 5 6 7 8 7 6 9 7 2 4 2 9 9 6 6 7 5 3 3 0 1 9 15 7 2 6 9 6 4 3 1 2 1 3 2 1 2 2 1 2 2 2 2 0 1 1 1 1 3 2 1 0 1 1 1 2 2 3 3 4 4 1 3 8 11 12 13 13 13 13 14 14
21 20 20 19 18 17 16 14 14 14 14 14 11 6 2 3 3 4 6 7 8 8 3 2 4 9 7 2 6 8 9 8 7 7 6 7 10 9 2 3 5 4 1 2 2 1 1 0 1 2 1 1 2 1 1 2 4 3 0 1 2 1 1 1 2 1 1 1 1 2 3 3 2 1 1 4 8 12 11 9 10 13 15 15 16 17 18
21 20 19 18 18 17 16 15 15 14 14 14 12 9 5 2 4 7 8 8 10 11 9 8 9 6 2 4 7 10 7 8 8 4 5 9 9 6 4 6 3 1 1 1 2 0 1 0 0 0 0 1 1 1 0 1 3 4 2 0 1 1 2 3 3 3 2 4 6 6 6 5 3 2 7 13 15 13 9 9 12 15 15 15 17 19 20
21 20 19 18 17 17 15 15 15 14 14 14 12 12 11 7 7 9 8 7 9 10 6 4 1 3 4 2 2 5 4 6 8 6 3 6 7 6 8 8 3 1 3 2 2 2 2 2 1 1 1 2 1 1 1 1 3 3 2 1 3 4 3 1 2 3 4 5 8 9 9 8 7 11 16 17 14 12 11 13 17 17 16 17 18 20 21
21 20 20 18 17 16 15 15 14 13 14 14 12 13 13 10 11 10 5 5 9 6 3 3 3 4 6 4 2 2 2 2 4 4 3 2 5 5 7 7 4 3 3 4 3 3 2 2 1 1 1 3 2 2 3 3 2 2 2 2 4 4 2 0 2 3 4 4 4 6 10 14 17 21 21 16 13 15 17 19 21 20 20 20 20 21 22
20 20 19 18 17 16 15 15 15 15 15 13 11 11 10 7 8 8 7 8 9 6 3 3 1 6 13 9 3 2 2 2 4 4 2 3 4 5 6 7 6 7 7 4 5 5 3 1 1 1 2 4 3 2 2 3 3 1 1 1 4 3 2 2 3 4 4 5 8 14 21 24 23 20 17 14 14 17 18 19 20 20 20 21 22 23 24
20 19 19 18 17 16 15 15 16 15 14 13 10 8 8 8 7 8 9 9 6 3 2 3 4 9 12 7 5 5 3 2 4 6 6 6 6 5 7 8 9 10 9 7 8 8 5 2 2 1 2 4 5 3 3 3 3 1 1 7 11 7 3 3 3 4 5 6 10 15 17 18 17 16 16 17 18 19 19 19 19 20 22 24 25 26 26
19 19 19 18 17 16 15 14 15 15 14 11 8 6 7 9 10 10 11 11 7 3 1 5 12 14 11 8 8 8 6 4 3 3 5 7 8 8 9 9 9 10 10 8 7 7 5 2 2 3 3 4 4 3 3 3 3 1 3 9 10 5 4 4 3 4 5 6 10 11 7 7 15 22 23 22 22 22 23 23 24 25 27 27 27 27 27
19 18 18 18 16 14 13 14 13 13 12 9 5 5 6 7 9 9 9 10 8 4 4 11 18 15 8 7 9 8 7 8 8 5 4 3 3 6 8 9 9 10 11 9 6 5 4 2 3 4 3 3 3 3 3 2 1 1 5 9 9 7 7 6 4 4 8 13 21 21 12 11 21 29 28 26 27 27 27 28 28 28 29 26 25 25 26
18 17 17 17 15 12 12 12 12 12 11 7 3 3 4 5 7 7 7 8 8 7 9 12 13 9 7 8 10 8 6 9 11 10 9 7 6 7 7 7 7 7 9 9 6 4 4 5 7 6 5 5 3 1 1 1 1 3 11 17 18 17 18 17 14 12 15 22 29 28 22 22 28 32 32 31 32 31 31 30 29 28 26 24 23 25 26
18 17 16 15 14 11 10 10 11 10 10 7 3 2 1 3 5 5 7 8 8 9 9 7 6 7 9 11 13 11 8 10 12 12 11 9 7 7 7 7 7 6 9 9 6 4 5 5 6 7 10 10 5 1 0 3 2 5 14 22 22 20 21 22 21 19 20 26 30 30 29 31 33 34 35 34 30 29 29 28 26 25 24 25 26 27 25
17 17 16 15 13 10 8 7 9 9 8 6 5 2 1 2 3 4 6 8 10 9 7 5 7 9 9 9 12 12 11 11 13 12 11 10 9 8 8 9 8 7 9 10 7 5 5 5 4 5 8 10 6 3 2 3 1 5 15 21 20 18 19 22 23 23 24 28 31 31 33 34 33 32 31 28 25 25 25 25 24 26 27 27 27 26 24
17 16 16 15 13 10 7 6 7 7 6 4 5 5 3 3 4 4 5 8 10 9 6 5 5 5 5 9 12 12 11 11 12 12 11 11 11 12 12 10 8 8 8 7 5 4 4 6 6 6 7 8 6 3 1 3 4 9 18 22 21 20 21 22 24 25 25 27 27 25 27 29 28 25 25 25 26 26 25 24 25 26 26 26 25 22 21
17 16 15 14 12 9 7 5 6 6 4 2 3 4 4 4 5 6 7 9 9 7 4 3 2 1 5 9 10 10 11 11 11 11 12 11 12 13 11 9 8 8 6 5 4 3 4 5 5 4 5 6 5 1 1 4 6 12 18 22 23 23 24 25 26 26 27 27 24 21 22 26 26 25 25 26 26 25 24 24 25 24 23 23 22 20 18
18 16 14 12 10 8 7 6 7 6 4 1 0 1 2 5 7 8 8 8 7 4 3 2 1 1 5 8 6 8 12 11 9 9 10 11 13 12 9 8 8 5 3 4 4 4 4 4 4 2 3 4 3 0 2 4 10 19 24 26 28 28 27 27 27 28 27 27 25 24 25 26 26 24 24 24 23 23 22 22 21 21 22 22 21 20 19
18 16 14 12 9 8 7 7 6 6 6 4 4 4 5 7 9 9 9 8 5 2 2 2 1 0 3 4 3 6 11 11 7 7 10 12 13 10 6 6 6 3 2 4 4 3 2 3 3 2 1 1 1 2 3 6 15 23 26 28 29 27 25 25 27 30 30 27 25 25 23 22 21 21 21 20 20 20 20 20 20 21 22 24 24 23 22
19 18 15 10 6 5 5 3 2 4 5 5 6 5 7 10 11 10 9 8 5 3 3 1 0 2 1 1 3 6 10 9 6 7 9 10 9 8 5 4 3 3 3 3 2 2 2 2 3 1 2 1 2 3 5 10 19 24 26 28 29 27 24 23 24 28 28 25 21 20 17 16 16 16 15 16 17 17 18 21 21 21 22 23 22 20 19
20 19 15 9 4 2 1 2 2 3 5 8 9 9 10 10 9 8 7 6 4 5 4 2 1 3 4 3 4 5 6 6 6 7 6 6 7 7 4 2 2 3 4 2 2 3 4 2 2 2 2 2 3 7 13 19 25 27 27 28 29 26 22 18 17 19 21 17 13 12 12 12 12 13 14 16 17 17 18 19 18 17 18 18 14 11 9
19 16 11 6 2 2 2 1 4 7 9 9 8 8 7 5 4 4 4 2 2 4 5 4 4 5 6 4 3 5 5 5 6 4 2 4 5 4 2 1 2 3 3 2 4 5 4 2 0 1 3 4 7 14 21 27 28 26 25 27 27 22 16 13 14 15 15 12 8 7 8 10 12 14 14 14 13 12 13 14 14 14 13 10 6 4 2
18 13 9 6 5 3 3 6 9 10 8 5 2 2 2 2 1 1 1 2 2 3 4 5 6 7 7 6 5 7 6 4 4 2 1 3 3 1 1 2 2 1 2 2 3 3 3 2 1 2 2 4 7 17 26 29 27 25 25 24 19 12 9 11 13 11 9 8 8 8 9 10 11 12 11 8 8 10 12 11 8 5 2 2 4 4 6
18 15 12 11 10 7 6 7 9 7 3 1 1 1 1 2 2 2 2 1 1 3 5 5 6 7 7 8 7 6 5 5 5 4 3 2 2 1 1 1 1 1 1 2 3 2 1 1 2 2 1 3 9 21 28 28 27 27 24 16 9 7 8 10 9 8 8 9 8 7 8 8 8 7 7 7 9 10 7 3 5 8 10 11 11 12 14
21 19 16 15 13 11 7 5 4 3 1 1 1 1 1 2 3 2 2 0 1 3 5 5 4 4 5 8 8 7 7 8 8 5 3 2 3 1 1 2 2 1 0 3 4 2 1 0 2 2 3 7 18 27 28 27 29 28 19 9 5 8 9 8 8 8 9 9 9 8 8 8 7 6 6 7 7 3 6 11 15 16 17 17 18 20 22
17 18 18 16 13 11 7 3 0 2 1 1 0 1 1 1 2 2 2 2 2 2 4 5 4 3 5 6 8 8 7 6 5 3 1 1 2 1 1 1 2 1 2 4 3 3 2 1 2 3 6 16 26 29 27 28 29 23 12 5 5 8 8 7 8 9 8 8 9 10 8 8 7 5 4 2 2 9 16 20 22 23 24 25 25 26 27
13 13 14 12 9 7 5 2 0 1 1 1 1 1 2 1 1 2 2 2 2 2 3 4 3 4 5 6 8 8 6 5 4 2 1 2 2 1 1 1 1 1 3 3 3 3 1 2 3 4 12 24 28 28 30 30 24 12 4 2 5 7 7 7 7 6 6 6 7 7 5 4 3 3 9 13 17 21 24 26 27 28 28 28 29 28 28
12 9 8 7 5 3 3 2 0 1 1 0 1 1 1 2 3 2 2 3 4 3 4 3 2 3 4 6 6 5 3 3 2 2 2 2 1 1 1 1 3 3 3 3 2 0 2 3 4 8 18 25 27 29 32 26 12 2 2 3 4 5 5 6 6 6 6 6 4 4 6 7 9 14 19 23 25 28 29 29 30 30 30 31 32 32 31
13 10 8 5 3 2 2 1 0 0 1 1 1 2 0 2 2 3 5 8 8 4 3 2 4 5 7 7 4 3 3 2 1 2 2 0 1 0 2 2 2 1 2 2 1 2 3 3 5 12 21 24 27 30 27 15 7 5 5 5 4 4 5 6 6 7 9 10 11 12 15 18 19 21 24 27 29 30 30 30 30 30 31 32 33 32 31
11 8 7 3 1 1 1 0 0 1 1 1 1 1 1 4 6 8 11 14 10 5 3 4 6 7 8 6 3 2 3 2 1 2 1 2 1 2 3 1 1 2 2 2 2 2 3 5 7 15 22 24 27 27 18 7 5 6 6 6 5 4 4 7 9 10 11 14 16 19 22 24 25 26 27 29 29 29 29 29 29 30 31 31 31 29 28
7 5 4 1 1 2 1 2 2 3 3 2 4 7 8 10 12 13 14 15 10 7 5 5 6 6 6 5 3 4 4 2 1 2 1 2 1 2 1 1 1 0 1 1 3 4 4 7 13 20 23 23 25 23 13 4 3 5 5 4 4 3 2 7 12 14 14 15 19 22 24 26 27 27 27 28 28 28 28 28 28 27 27 27 26 25 23
5 3 2 1 1 1 2 2 3 7 10 10 11 12 13 15 15 13 14 17 11 8 8 5 5 4 4 2 2 3 2 0 0 2 1 1 1 2 2 2 2 1 1 3 4 4 5 11 18 22 21 20 21 18 9 3 4 6 5 4 3 2 3 5 9 14 16 18 20 23 24 25 26 26 26 27 28 27 26 25 24 23 22 22 21 19 18
5 3 2 2 3 5 7 7 8 10 13 15 15 15 14 17 17 14 14 17 13 8 9 6 4 2 2 2 1 1 1 0 0 1 1 1 1 0 0 0 2 3 3 3 4 5 11 17 20 21 19 18 18 14 5 1 3 5 5 5 5 6 7 6 7 11 14 16 19 22 23 25 26 26 26 26 25 24 22 21 19 18 17 16 15 15 15
5 5 5 5 4 6 7 7 6 6 9 14 18 18 17 18 19 14 12 17 18 13 9 7 4 2 1 1 1 1 2 2 1 1 1 1 1 1 0 2 3 4 4 5 7 12 17 19 20 20 18 16 15 10 3 5 4 4 6 7 8 9 9 8 9 11 13 14 16 17 18 20 22 23 23 23 22 20 20 18 17 16 16 15 14 14 15
3 5 7 8 9 9 8 7 6 6 9 15 20 20 18 18 19 17 16 19 20 14 6 5 3 1 2 1 0 1 2 1 1 1 1 2 2 2 1 3 5 5 7 11 15 17 18 18 19 20 17 15 13 7 4 7 6 4 4 6 8 11 12 11 12 15 17 17 17 17 16 17 18 18 19 19 18 18 19 19 18 17 17 16 14 14 14
5 6 7 10 14 16 16 15 15 15 16 18 20 20 18 19 19 19 19 21 18 11 7 5 2 2 1 1 2 1 0 1 1 1 2 3 2 3 4 6 8 10 13 17 18 17 17 18 20 18 15 13 11 5 5 9 8 7 6 4 5 9 13 14 15 17 18 19 19 19 18 18 18 17 17 17 17 18 20 20 18 16 16 15 15 14 14
Wind_Direction
4 4 4 2 2 1 359 357 351 346 347 350 354 357 355 347 327 299 286 283 317 357 14 347 357 72 322 318 287 301 315 331 343 346 4 1 336 0 19 199 205 189 180 161 144 118 212 233 220 228 234 100 30 357 8 11 12 55 15 301 329 87 83 69 296 290 308 300 301 310 288 91 90 56 58 101 116 122 152 180 178 204 236 147 127 234 264
4 4 4 2 2 1 359 360 358 353 352 351 352 353 348 334 314 295 316 313 307 336 161 315 333 300 324 341 324 318 310 339 0 342 319 320 298 356 328 241 199 204 119 104 169 174 147 236 247 246 221 199 31 16 11 12 15 20 356 307 343 337 299 97 11 329 334 335 345 351 336 40 106 153 36 82 95 87 87 91 89 219 235 162 161 230 247
5 3 2 2 2 0 359 360 358 358 355 350 348 347 344 337 310 296 352 356 10 94 97 115 180 286 338 335 311 319 310 331 335 305 293 307 245 194 320 286 91 36 36 52 12 142 118 251 271 17 341 263 25 12 4 11 18 11 18 17 0 266 224 140 132 239 246 282 284 263 281 320 102 131 101 59 35 52 345 20 92 235 262 160 162 219 259
6 3 1 360 360 0 0 359 357 358 356 350 348 346 344 352 331 314 352 26 69 83 65 54 75 314 5 333 294 297 251 306 314 300 329 10 17 56 16 354 29 35 33 45 10 359 34 7 8 34 344 291 343 352 356 18 18 18 23 13 8 132 65 157 153 180 205 208 230 230 189 219 265 242 155 171 310 99 112 98 145 199 229 257 215 198 251
4 3 1 359 358 358 359 359 358 358 357 354 352 351 352 19 38 347 351 9 51 71 44 32 28 317 1 308 284 300 288 309 324 313 44 34 28 63 49 23 37 26 20 67 37 334 341 11 48 39 324 273 299 332 354 31 19 21 24 9 16 102 1 295 167 198 220 207 230 254 220 218 244 239 179 185 207 173 134 166 219 177 156 273 250 187 213
0 360 1 358 357 356 356 359 359 357 359 1 359 358 6 23 51 66 39 336 337 55 3 357 354 329 290 233 306 335 326 321 318 305 26 36 29 48 45 26 39 354 4 102 157 344 359 5 24 205 317 308 318 339 355 40 22 23 23 13 45 118 292 275 212 268 263 229 238 253 247 231 228 223 207 196 204 201 189 210 210 162 177 248 237 189 213
357 357 358 357 357 355 353 357 358 360 4 3 2 15 30 26 26 38 21 325 240 291 320 324 348 1 346 346 12 6 344 328 299 304 0 23 13 38 99 338 345 342 60 111 134 30 118 323 308 230 347 348 344 349 326 357 27 29 19 5 47 116 267 273 252 303 301 280 263 253 242 246 252 248 230 202 198 208 215 226 208 184 212 239 229 222 243
356 357 357 357 359 355 353 355 356 1 6 3 13 39 40 34 26 347 347 336 314 328 331 341 44 22 7 5 355 0 6 350 316 319 20 9 317 30 101 250 263 152 96 98 132 190 173 175 236 203 81 2 311 319 268 265 8 21 16 347 20 57 285 291 48 359 300 295 307 310 275 238 251 264 243 202 203 221 235 242 208 196 239 257 257 261 269
357 359 358 359 1 359 357 356 355 0 5 7 28 43 41 55 45 357 343 337 348 353 348 14 76 40 12 5 330 342 359 340 316 316 49 88 124 52 192 239 292 44 62 82 175 206 181 174 212 203 170 219 233 219 228 249 345 358 8 319 3 46 298 336 45 336 277 288 309 300 321 322 269 247 217 202 207 217 223 222 197 187 212 242 274 279 262
359 0 360 359 2 4 3 359 358 0 1 6 30 40 33 48 41 349 349 315 342 6 0 12 60 57 347 344 328 317 316 326 336 352 43 67 64 325 227 200 26 18 32 29 256 234 214 218 243 234 229 243 237 236 253 256 238 222 179 262 229 151 207 292 74 265 269 278 276 280 350 335 278 239 194 197 211 219 225 240 226 199 181 184 216 234 230
1 1 1 0 2 5 7 6 2 0 0 8 23 27 20 18 346 338 13 274 320 9 22 22 54 40 340 344 332 302 317 337 357 48 248 0 25 4 337 95 81 143 327 335 312 278 254 248 253 247 244 251 249 250 261 256 235 222 199 208 232 177 187 220 183 216 266 280 319 349 328 269 256 229 185 189 201 206 206 224 229 210 181 167 197 216 208
3 1 1 2 3 5 10 13 9 5 7 13 17 17 13 11 355 346 23 167 306 9 33 32 26 339 321 332 327 298 312 331 335 334 268 297 22 35 40 45 46 312 334 339 321 279 254 248 252 253 250 261 267 264 264 260 260 254 231 214 244 223 210 224 183 206 253 278 78 281 258 249 262 287 216 196 186 171 178 233 246 210 183 180 184 182 177
3 1 2 3 5 7 10 16 17 13 13 13 12 15 11 6 2 359 21 61 280 344 7 306 335 342 330 334 339 327 338 353 351 357 347 320 13 35 35 22 357 326 337 341 325 268 261 279 313 303 287 315 314 288 267 251 270 277 253 218 215 222 218 215 185 203 239 124 150 207 246 286 303 303 301 276 208 113 94 300 291 253 202 195 185 193 201
2 2 3 3 5 8 10 15 21 18 17 15 11 13 6 358 4 6 13 49 263 311 340 315 329 342 335 337 353 350 355 10 9 7 11 5 10 14 7 359 349 341 339 332 317 343 52 19 17 359 333 351 2 334 288 268 275 303 291 241 211 191 172 180 216 219 189 181 211 242 312 316 298 303 330 353 326 293 223 247 285 289 263 180 162 197 246
3 3 4 4 5 9 10 14 18 19 21 21 6 2 358 356 4 10 18 63 269 322 16 34 330 318 310 321 360 12 357 6 3 340 347 9 8 350 346 349 352 354 349 323 319 78 83 47 34 2 336 357 342 297 302 315 297 289 294 288 249 192 178 176 198 216 160 190 257 292 303 278 266 280 285 279 281 256 214 163 310 300 297 173 170 210 246
3 3 4 4 4 9 11 12 16 20 27 29 3 348 354 356 359 3 23 76 99 286 38 22 359 327 296 308 0 15 346 333 340 329 340 355 348 340 340 343 352 5 6 346 69 90 81 171 141 174 227 192 205 271 286 302 299 301 329 349 354 351 158 144 161 214 135 166 226 241 226 241 249 257 278 317 323 287 224 96 352 282 305 306 250 250 264
3 3 4 5 4 6 9 11 14 19 24 29 19 358 358 356 349 359 27 56 11 257 226 287 357 11 14 341 344 353 347 331 339 8 319 310 324 337 340 342 352 10 13 4 49 70 79 155 128 129 228 212 173 227 276 280 297 316 334 354 6 7 21 89 161 228 218 172 220 241 219 248 266 262 294 330 339 348 60 71 266 280 314 313 274 260 282
2 1 2 3 4 5 6 7 11 15 18 22 26 5 355 352 347 351 3 7 351 270 221 274 333 6 41 1 308 311 336 331 324 328 302 298 335 336 334 340 359 11 12 23 73 54 72 153 164 150 223 270 202 195 271 291 229 288 313 351 7 354 345 57 163 214 229 209 240 266 249 260 275 289 325 341 349 25 100 184 256 290 311 317 298 276 291
360 359 360 360 1 5 7 6 9 11 11 14 25 9 331 333 333 336 349 11 2 297 282 294 280 253 356 345 321 314 341 337 319 327 328 355 348 336 329 352 34 9 1 28 62 58 67 308 284 132 172 297 338 147 277 279 236 289 334 359 347 338 329 334 68 211 240 195 203 274 288 271 267 297 336 356 17 109 209 278 300 306 309 319 313 291 295
358 357 358 358 359 3 4 6 10 8 4 6 18 32 337 319 325 336 351 2 331 311 325 95 157 293 334 341 353 353 344 340 329 333 2 254 330 341 350 58 15 0 4 27 21 27 62 315 308 29 75 291 353 21 318 308 288 273 40 18 299 242 297 303 265 215 299 31 20 293 262 279 310 330 359 33 78 264 284 297 309 315 318 321 313 302 302
357 355 356 357 357 359 359 1 5 5 2 359 4 18 6 292 279 292 314 324 314 312 331 166 279 317 332 34 39 10 349 344 330 304 287 295 322 349 44 225 314 342 35 54 38 21 29 345 293 345 345 319 351 347 333 343 310 283 176 28 296 226 182 245 263 231 122 140 244 201 199 248 300 103 164 283 282 283 288 293 304 312 314 311 305 301 301
356 354 355 355 355 356 356 356 358 358 356 354 355 3 4 316 271 276 283 290 292 291 291 287 294 314 112 114 35 19 17 18 14 345 295 302 312 323 287 274 299 324 238 57 80 239 305 78 171 354 321 273 311 296 291 24 293 287 313 72 239 250 200 200 231 248 210 206 233 250 264 279 282 277 296 297 288 278 276 283 290 295 298 298 298 297 297
354 352 353 353 352 353 352 353 356 352 348 351 352 352 352 339 315 307 296 298 306 299 303 329 3 114 131 158 359 16 34 30 29 40 15 301 288 288 283 277 278 272 243 174 148 192 180 166 182 140 203 232 215 223 295 272 230 254 284 243 252 283 287 210 199 270 299 275 251 256 273 284 292 302 306 301 284 269 277 288 289 289 292 296 298 298 299
352 350 350 348 347 350 349 350 352 346 344 349 348 345 348 340 328 330 337 352 353 353 6 31 77 60 13 340 290 323 31 26 358 10 21 290 252 252 266 263 262 274 245 195 193 199 160 175 209 119 183 241 195 174 259 265 232 221 249 287 292 297 313 154 223 270 302 294 263 278 294 298 303 306 305 297 277 269 280 290 290 289 292 295 297 299 300
350 348 348 346 344 345 345 346 347 345 346 350 350 349 355 353 344 356 22 20 15 20 356 326 31 15 358 352 349 333 333 306 290 285 300 308 273 250 262 270 274 279 273 247 225 206 173 172 205 146 210 225 200 191 229 234 240 221 145 274 281 293 2 328 250 234 235 246 267 285 290 291 296 297 294 292 290 285 285 291 292 289 287 289 293 296 296
348 347 346 343 341 341 343 348 353 355 354 357 3 10 22 37 43 39 35 28 24 27 353 306 313 347 357 19 61 41 12 322 293 270 263 277 278 275 285 283 276 273 268 253 231 219 201 164 153 171 213 197 187 195 204 213 235 214 210 251 255 261 292 282 251 262 275 268 270 278 283 289 292 287 283 291 300 300 297 298 298 294 291 292 294 295 295
345 344 343 340 338 340 346 354 360 4 6 7 21 46 54 54 51 41 34 33 29 33 10 299 315 343 15 49 46 34 41 39 2 302 266 263 265 278 287 284 280 272 256 240 228 217 204 171 170 202 223 214 207 215 221 231 240 212 251 258 252 246 258 256 257 287 281 264 268 273 272 280 286 287 290 295 300 301 298 297 298 299 298 298 298 297 296
341 340 339 339 338 339 348 356 1 10 16 18 34 64 63 52 41 26 20 22 17 5 291 297 313 335 13 38 31 37 48 40 32 24 6 337 294 296 293 285 284 271 245 232 225 199 181 187 207 216 221 211 216 245 247 234 212 218 253 253 237 222 231 235 231 246 252 264 276 280 275 269 280 288 294 298 302 302 297 294 297 300 301 301 299 297 298
339 338 337 338 338 338 346 354 359 8 18 26 50 76 62 47 36 18 3 6 6 351 323 314 322 337 348 2 20 41 51 35 28 20 11 1 343 331 321 304 294 271 242 231 220 203 210 220 219 230 240 221 204 254 269 201 152 235 254 257 256 255 256 254 249 251 263 274 280 283 282 279 284 291 296 299 302 302 297 295 299 301 301 299 297 297 298
338 337 335 333 332 331 338 348 353 0 12 26 53 95 73 45 34 12 358 358 356 347 337 320 316 328 337 355 15 26 32 26 17 12 11 3 347 341 337 319 303 271 243 235 226 225 243 238 226 239 245 232 209 116 179 218 207 249 261 266 270 271 271 270 267 265 272 280 284 286 285 283 286 290 292 294 298 298 295 296 299 300 299 297 296 295 295
338 335 332 327 322 320 325 337 345 351 360 14 33 53 70 19 1 340 339 345 344 341 336 306 297 314 334 357 9 10 11 11 9 12 17 13 5 2 351 330 310 273 245 239 235 234 241 233 228 246 243 225 201 153 190 218 214 271 273 277 282 286 287 290 290 286 285 288 291 291 287 286 287 288 289 294 300 300 296 295 295 296 297 295 293 292 292
339 334 330 324 315 309 306 315 335 347 353 9 33 40 30 347 328 305 303 325 337 340 338 325 313 314 331 348 359 4 6 11 16 18 15 10 359 349 345 338 320 294 269 247 226 226 245 238 236 255 254 224 193 161 195 205 214 258 276 287 298 302 302 304 303 300 296 295 293 289 286 288 291 291 293 301 304 300 295 292 293 295 296 295 293 290 290
341 335 330 323 310 298 290 296 315 327 327 339 42 42 25 347 316 293 290 311 328 331 326 334 338 284 309 330 351 10 12 11 13 8 3 360 348 340 342 346 328 302 276 248 224 230 258 243 230 260 263 218 183 143 248 226 251 286 301 310 314 313 312 310 307 303 300 297 291 281 279 287 294 296 296 298 297 293 290 289 290 291 292 292 291 289 287
343 339 334 325 307 285 278 291 297 290 285 274 144 18 337 323 316 306 295 302 316 317 300 310 315 289 313 318 338 11 7 0 359 357 351 346 342 339 337 333 324 308 271 264 251 234 249 245 224 247 256 205 181 267 245 265 311 322 323 322 320 317 316 313 308 304 302 299 290 279 278 286 292 292 290 291 290 287 284 283 284 286 287 287 287 287 289
346 344 340 328 307 285 288 301 290 251 234 235 248 264 291 313 321 316 304 302 310 294 261 282 237 265 335 327 326 355 353 347 343 338 329 328 333 334 323 315 317 302 273 281 260 227 250 239 203 215 264 171 162 224 232 290 319 322 319 317 318 317 313 309 307 306 304 298 289 282 282 286 288 287 286 286 283 280 279 279 281 285 286 287 288 288 289
347 347 344 335 313 292 298 307 211 202 222 246 255 267 296 310 314 309 298 297 293 244 237 295 158 169 170 259 275 312 333 338 334 325 317 317 323 322 311 305 297 282 283 279 252 260 283 234 194 252 303 220 205 245 284 314 319 317 315 314 315 313 307 304 308 310 308 303 295 288 283 278 276 277 279 279 279 280 283 285 287 289 290 290 289 288 287
349 348 350 350 329 277 240 152 175 243 288 286 277 282 297 305 303 293 283 282 271 241 238 253 251 221 210 223 275 300 317 322 322 322 317 310 308 308 308 286 266 301 322 314 277 294 292 250 210 253 264 243 284 313 327 328 323 317 315 314 313 310 306 305 313 319 320 316 305 288 273 264 267 275 281 283 285 288 290 291 295 299 300 298 296 295 294
350 349 351 355 338 243 223 267 289 300 308 303 289 288 294 294 287 279 267 244 220 230 228 232 257 247 215 207 270 291 286 298 319 329 317 309 311 313 321 305 283 313 340 305 283 298 310 313 107 227 260 291 322 329 330 329 324 320 319 318 315 310 304 304 318 330 335 336 328 311 297 287 287 292 296 296 297 301 305 307 308 307 306 303 296 287 272
349 353 359 3 357 332 304 302 302 307 316 318 292 271 270 262 272 282 226 168 176 217 217 230 251 238 205 208 269 288 278 289 322 335 311 316 319 309 328 327 311 343 5 309 290 314 333 329 346 339 288 282 313 325 329 330 328 326 325 323 318 310 305 310 319 330 340 340 332 328 325 314 303 304 309 314 319 323 322 316 307 298 282 161 149 149 144
349 357 2 358 350 341 317 297 292 296 309 319 238 276 269 249 242 207 170 155 215 213 205 225 258 252 227 228 257 283 284 276 277 282 294 293 266 249 325 328 303 1 0 285 278 311 341 297 311 329 261 260 310 325 330 332 331 329 327 324 324 330 332 333 339 354 359 349 340 338 340 336 327 324 324 321 323 330 341 31 113 119 120 122 121 116 116
348 348 345 342 342 342 333 306 280 265 205 156 219 280 250 240 243 217 176 161 290 233 215 222 252 265 245 233 236 258 284 283 271 271 288 274 247 252 308 296 303 27 121 261 286 343 65 2 305 267 248 302 324 330 331 331 330 329 327 324 341 353 355 2 8 5 358 354 350 346 345 343 338 328 314 304 306 338 81 99 104 104 106 109 110 108 108
339 329 324 327 334 339 341 348 157 168 143 120 34 312 286 252 257 248 219 224 263 261 230 220 229 269 284 267 256 265 286 292 278 271 286 267 250 246 261 306 7 55 233 265 313 34 62 322 292 254 293 323 331 331 330 328 327 326 319 313 353 8 16 20 9 356 352 354 352 348 344 336 325 315 303 289 127 113 105 100 100 101 102 104 105 105 104
336 319 317 323 331 338 347 0 125 171 85 72 61 343 325 317 323 312 267 238 254 260 226 222 250 296 300 284 276 278 284 285 279 272 248 249 268 314 42 27 17 240 259 295 16 58 340 269 229 262 313 328 331 331 331 331 328 319 292 324 11 19 22 18 10 6 8 2 353 349 348 339 341 101 111 111 110 108 104 102 103 104 103 102 101 99 97
345 334 325 320 322 344 354 345 165 118 16 34 133 122 341 331 326 317 299 294 286 257 221 221 280 310 297 289 291 291 280 270 282 285 264 262 286 48 68 265 251 257 303 344 29 21 273 241 233 294 320 329 333 334 337 341 350 50 110 50 36 36 25 21 27 40 46 46 51 73 86 96 111 114 111 109 109 108 106 105 105 103 101 98 96 95 93
354 356 351 338 327 351 348 312 194 136 255 233 158 130 194 287 274 270 294 302 290 248 213 257 281 280 286 294 294 270 255 269 303 269 250 280 42 2 234 237 243 314 358 354 343 323 307 266 278 313 323 329 335 339 343 356 36 66 56 52 56 45 28 33 50 67 76 84 93 97 98 101 106 107 106 107 108 108 107 106 104 101 100 99 97 96 95
357 3 6 356 318 337 7 59 213 323 240 176 108 47 294 289 285 290 307 312 296 246 234 295 281 269 285 300 294 257 271 281 269 256 230 93 63 263 245 238 352 15 28 4 310 294 265 254 292 320 327 331 337 343 348 7 38 28 37 57 53 35 48 69 76 80 87 96 102 103 102 103 105 106 108 109 110 109 108 107 106 105 103 101 99 98 97
355 5 12 355 283 319 322 212 233 280 287 305 328 327 326 324 314 310 324 330 311 259 251 290 279 267 286 302 277 264 275 261 214 269 278 115 172 278 317 24 337 229 117 280 270 252 243 276 309 325 331 335 340 344 348 359 4 1 18 32 14 358 81 94 88 87 91 101 107 107 105 107 109 112 113 114 112 111 111 111 109 108 105 102 101 99 96
340 347 347 268 224 258 248 246 298 303 297 303 316 320 325 330 325 324 341 347 324 253 236 271 286 271 283 297 262 263 291 346 257 273 267 117 72 326 355 4 312 257 210 218 220 222 264 299 317 327 332 336 340 341 342 2 10 4 7 10 13 53 108 107 97 92 93 98 105 107 109 112 114 115 115 115 114 114 115 114 112 110 108 105 102 98 92
303 287 261 243 248 256 260 276 302 301 294 301 312 316 322 329 325 322 342 351 337 274 244 265 289 266 264 298 306 290 297 314 213 314 357 25 355 251 161 280 284 282 264 216 210 257 294 310 321 327 329 333 336 334 328 121 55 34 44 56 75 100 114 119 112 104 99 99 101 103 107 112 114 114 115 115 114 115 116 115 114 112 108 105 102 95 87
278 255 237 232 246 267 274 283 296 295 294 304 311 313 318 322 319 317 334 345 336 310 272 255 245 227 265 343 21 1 283 252 176 107 1 283 217 182 213 258 240 235 242 253 275 296 309 318 323 322 323 329 333 324 252 166 137 86 82 86 94 106 112 113 113 111 109 107 104 102 102 105 108 109 109 110 111 112 111 109 106 103 99 96 93 90 83
261 249 243 236 240 256 271 277 278 279 285 294 302 306 309 309 308 311 321 328 327 319 282 228 201 102 38 21 176 238 265 258 135 123 261 242 192 147 177 230 226 235 271 292 302 310 316 320 320 317 318 325 327 310 209 177 176 162 124 106 106 110 112 114 115 112 108 106 106 105 104 104 104 105 106 107 107 106 103 99 96 93 90 87 83 80 75
232 248 261 262 262 266 269 269 269 272 276 282 292 301 302 299 302 309 315 317 316 303 258 222 175 100 100 211 205 202 277 356 18 293 263 251 218 184 205 237 258 277 290 300 309 315 315 315 314 311 310 317 321 301 191 184 189 182 167 160 142 126 119 117 117 116 113 110 108 105 104 104 105 105 107 107 107 105 102 99 96 92 87 82 77 71 65